| time (UTC) | temp F | wind direction | speed MPH | gust MPH | rain 1hr in | rain 24hr in | rain mn in | humidity % | barometer mb |
| 20260902165109 | 91 | 71 | 4.0 | 10.0 | 0.00 | 0.00 | 0.00 | 60 | 1014.9 |
| 20260902164109 | 92 | 39 | 7.0 | 9.0 | 0.00 | 0.00 | 0.00 | 60 | 1015.1 |
| 20260902162109 | 90 | 61 | 6.0 | 9.0 | 0.00 | 0.00 | 0.00 | 62 | 1015.1 |
| 20260902160109 | 90 | 71 | 2.0 | 10.0 | 0.00 | 0.00 | 0.00 | 63 | 1015.2 |
| 20260902155109 | 89 | 244 | 1.0 | 11.0 | 0.00 | 0.00 | 0.00 | 65 | 1015.1 |
| 20260902153109 | 88 | 111 | 1.0 | 8.0 | 0.00 | 0.00 | 0.00 | 69 | 1015.0 |
| 20260902151109 | 88 | 53 | 3.0 | 7.0 | 0.00 | 0.00 | 0.00 | 69 | 1015.0 |
| 20260902150109 | 87 | 55 | 6.0 | 8.0 | 0.00 | 0.00 | 0.00 | 71 | 1014.8 |
| 20260902145109 | 86 | 72 | 1.0 | 6.0 | 0.00 | 0.00 | 0.00 | 72 | 1014.8 |
| 20260902142109 | 84 | 221 | 2.0 | 8.0 | 0.00 | 0.00 | 0.00 | 76 | 1014.8 |
| 20260902140109 | 83 | 103 | 1.0 | 7.0 | 0.00 | 0.00 | 0.00 | 78 | 1014.9 |
| 20260902135109 | 82 | 62 | 4.0 | 7.0 | 0.00 | 0.00 | 0.00 | 79 | 1014.9 |
| 20260902134109 | 81 | 76 | 2.0 | 4.0 | 0.00 | 0.00 | 0.00 | 81 | 1015.0 |
| 20260902133109 | 80 | 72 | 1.0 | 5.0 | 0.00 | 0.00 | 0.00 | 82 | 1015.1 |
| 20260902131109 | 77 | 235 | 2.0 | 2.0 | 0.00 | 0.00 | 0.00 | 86 | 1014.9 |
| 20260902130109 | 76 | 235 | 0.0 | 0.0 | 0.00 | 0.00 | 0.00 | 87 | 1014.9 |
| 20260902125109 | 75 | 235 | 0.0 | 2.0 | 0.00 | 0.00 | 0.00 | 89 | 1015.1 |
| 20260902124109 | 73 | 235 | 0.0 | 0.0 | 0.00 | 0.00 | 0.00 | 91 | 1014.9 |
| 20260902123109 | 72 | 235 | 0.0 | 2.0 | 0.00 | 0.00 | 0.00 | 91 | 1014.7 |
| 20260902122109 | 70 | 235 | 0.0 | 1.0 | 0.00 | 0.00 | 0.00 | 90 | 1014.6 |
| 20260902121109 | 71 | 235 | 0.0 | 1.0 | 0.00 | 0.00 | 0.00 | 90 | 1014.6 |
| 20260902114109 | 71 | 235 | 0.0 | 0.0 | 0.00 | 0.00 | 0.00 | 90 | 1014.5 |
| 20260902113109 | 71 | 235 | 0.0 | 0.0 | 0.00 | 0.00 | 0.00 | 90 | 1014.5 |
| 20260902111109 | 71 | 235 | 0.0 | 0.0 | 0.00 | 0.00 | 0.00 | 90 | 1014.3 |
| 20260902110109 | 72 | 235 | 0.0 | 0.0 | 0.00 | 0.00 | 0.00 | 89 | 1014.3 |
| 20260902105109 | 72 | 235 | 0.0 | 0.0 | 0.00 | 0.00 | 0.00 | 89 | 1014.3 |
| 20260902103109 | 72 | 235 | 0.0 | 0.0 | 0.00 | 0.00 | 0.00 | 89 | 1014.1 |
| 20260902101109 | 73 | 235 | 0.0 | 0.0 | 0.00 | 0.00 | 0.00 | 89 | 1014.1 |
| 20260902100110 | 73 | 235 | 0.0 | 0.0 | 0.00 | 0.00 | 0.00 | 89 | 1014.1 |
| 20260902095109 | 73 | 235 | 0.0 | 0.0 | 0.00 | 0.00 | 0.00 | 88 | 1014.2 |
| 20260902093109 | 74 | 235 | 0.0 | 0.0 | 0.00 | 0.00 | 0.00 | 87 | 1014.1 |
| 20260902092109 | 74 | 235 | 0.0 | 0.0 | 0.00 | 0.00 | 0.00 | 87 | 1014.1 |
| 20260902091109 | 74 | 235 | 0.0 | 0.0 | 0.00 | 0.00 | 0.00 | 87 | 1014.0 |
| 20260902090109 | 74 | 235 | 0.0 | 0.0 | 0.00 | 0.00 | 0.00 | 86 | 1014.0 |
| 20260902085109 | 75 | 235 | 0.0 | 0.0 | 0.00 | 0.00 | 0.00 | 85 | 1014.0 |
| 20260902084109 | 75 | 235 | 0.0 | 0.0 | 0.00 | 0.00 | 0.00 | 85 | 1013.9 |
| 20260902083109 | 76 | 235 | 0.0 | 0.0 | 0.00 | 0.00 | 0.00 | 85 | 1013.9 |
| 20260902082109 | 76 | 235 | 0.0 | 0.0 | 0.00 | 0.00 | 0.00 | 84 | 1013.9 |
| 20260902074110 | 78 | 235 | 0.0 | 0.0 | 0.00 | 0.00 | 0.00 | 80 | 1014.0 |
| 20260902073109 | 79 | 235 | 0.0 | 0.0 | 0.00 | 0.00 | 0.00 | 79 | 1014.0 |
| 20260902072110 | 80 | 235 | 0.0 | 1.0 | 0.00 | 0.00 | 0.00 | 77 | 1014.1 |
| 20260902071109 | 80 | 235 | 0.0 | 1.0 | 0.00 | 0.00 | 0.00 | 77 | 1014.1 |
| 20260902070109 | 81 | 235 | 0.0 | 1.0 | 0.00 | 0.00 | 0.00 | 76 | 1014.1 |
| 20260902064110 | 81 | 235 | 0.0 | 3.0 | 0.00 | 0.00 | 0.00 | 75 | 1014.2 |
| 20260902063110 | 81 | 63 | 1.0 | 6.0 | 0.00 | 0.00 | 0.00 | 75 | 1014.2 |
| 20260902062110 | 81 | 289 | 1.0 | 2.0 | 0.00 | 0.00 | 0.00 | 75 | 1014.2 |
| 20260902061109 | 80 | 329 | 1.0 | 3.0 | 0.00 | 0.00 | 0.00 | 76 | 1014.0 |
| 20260902054109 | 77 | 155 | 2.0 | 2.0 | 0.00 | 0.00 | 0.00 | 80 | 1013.9 |
| 20260902053110 | 77 | 155 | 0.0 | 1.0 | 0.00 | 0.00 | 0.00 | 81 | 1013.8 |
| 20260902052109 | 77 | 155 | 0.0 | 1.0 | 0.00 | 0.00 | 0.00 | 81 | 1013.9 |
| 20260902051109 | 77 | 155 | 0.0 | 1.0 | 0.00 | 0.00 | 0.00 | 80 | 1013.7 |
| 20260902050109 | 77 | 155 | 0.0 | 1.0 | 0.00 | 0.00 | 0.00 | 81 | 1013.7 |
| 20260902045109 | 78 | 155 | 0.0 | 0.0 | 0.00 | 0.00 | 0.00 | 79 | 1013.6 |
| 20260902044110 | 78 | 155 | 0.0 | 1.0 | 0.00 | 0.00 | 0.00 | 79 | 1013.6 |
| 20260902043109 | 78 | 155 | 0.0 | 0.0 | 0.00 | 0.00 | 0.00 | 78 | 1013.5 |
| 20260902042110 | 79 | 155 | 0.0 | 1.0 | 0.00 | 0.00 | 0.00 | 77 | 1013.5 |
| 20260902041110 | 79 | 155 | 0.0 | 0.0 | 0.00 | 0.00 | 0.00 | 76 | 1013.5 |
| 20260902040110 | 80 | 155 | 0.0 | 0.0 | 0.00 | 0.00 | 0.00 | 76 | 1013.4 |
| 20260902035110 | 80 | 155 | 0.0 | 1.0 | 0.00 | 0.00 | 0.00 | 76 | 1013.4 |
| 20260902034110 | 80 | 155 | 0.0 | 0.0 | 0.00 | 0.00 | 0.00 | 75 | 1013.3 |
| 20260902033110 | 81 | 155 | 0.0 | 0.0 | 0.00 | 0.00 | 0.00 | 75 | 1013.4 |
| 20260902032110 | 81 | 155 | 0.0 | 1.0 | 0.00 | 0.00 | 0.00 | 75 | 1013.3 |
| 20260902031110 | 81 | 155 | 0.0 | 1.0 | 0.00 | 0.00 | 0.00 | 75 | 1013.2 |
| 20260902030110 | 82 | 155 | 0.0 | 1.0 | 0.00 | 0.00 | 0.00 | 74 | 1013.1 |
| 20260902024110 | 82 | 155 | 0.0 | 2.0 | 0.00 | 0.00 | 0.00 | 73 | 1012.9 |
| 20260902023110 | 83 | 151 | 0.0 | 1.0 | 0.00 | 0.00 | 0.00 | 72 | 1012.7 |
| 20260902022110 | 83 | 151 | 0.0 | 1.0 | 0.00 | 0.00 | 0.00 | 71 | 1012.5 |
| 20260902021109 | 84 | 151 | 0.0 | 0.0 | 0.00 | 0.00 | 0.00 | 70 | 1012.4 |
| 20260902020110 | 85 | 151 | 0.0 | 0.0 | 0.00 | 0.00 | 0.00 | 68 | 1012.2 |
| 20260902015110 | 86 | 151 | 0.0 | 0.0 | 0.00 | 0.00 | 0.00 | 67 | 1012.1 |
| 20260902014109 | 87 | 151 | 0.0 | 0.0 | 0.00 | 0.00 | 0.00 | 65 | 1012.0 |
| 20260902011110 | 90 | 151 | 0.0 | 0.0 | 0.00 | 0.00 | 0.00 | 59 | 1011.5 |
| 20260902010110 | 91 | 151 | 0.0 | 2.0 | 0.00 | 0.00 | 0.00 | 55 | 1011.5 |
| 20260902005110 | 92 | 151 | 0.0 | 2.0 | 0.00 | 0.00 | 0.00 | 53 | 1011.3 |
| 20260902004110 | 93 | 151 | 0.0 | 3.0 | 0.00 | 0.00 | 0.00 | 52 | 1011.2 |
| 20260902003110 | 94 | 151 | 2.0 | 3.0 | 0.00 | 0.00 | 0.00 | 50 | 1011.4 |
| 20260902002110 | 95 | 87 | 1.0 | 5.0 | 0.00 | 0.00 | 0.00 | 50 | 1011.3 |
| 20260902001110 | 95 | 77 | 2.0 | 8.0 | 0.00 | 0.00 | 0.00 | 49 | 1011.4 |
| 20260902000110 | 96 | 101 | 1.0 | 5.0 | 0.00 | 0.00 | 0.00 | 48 | 1011.5 |
| 20260901235110 | 96 | 191 | 4.0 | 5.0 | 0.00 | 0.00 | 0.00 | 48 | 1011.4 |
| 20260901234110 | 96 | 355 | 2.0 | 9.0 | 0.00 | 0.00 | 0.00 | 48 | 1011.4 |
| 20260901233110 | 97 | 78 | 4.0 | 8.0 | 0.00 | 0.00 | 0.00 | 47 | 1011.5 |
| 20260901232110 | 97 | 238 | 1.0 | 10.0 | 0.00 | 0.00 | 0.00 | 46 | 1011.6 |
| 20260901231110 | 97 | 56 | 3.0 | 9.0 | 0.00 | 0.00 | 0.00 | 47 | 1011.5 |
| 20260901225110 | 98 | 10 | 4.0 | 10.0 | 0.00 | 0.00 | 0.00 | 46 | 1011.7 |
| 20260901224110 | 98 | 53 | 3.0 | 12.0 | 0.00 | 0.00 | 0.00 | 46 | 1011.8 |
| 20260901222110 | 98 | 77 | 5.0 | 10.0 | 0.00 | 0.00 | 0.00 | 45 | 1011.8 |
| 20260901221110 | 99 | 123 | 1.0 | 10.0 | 0.00 | 0.00 | 0.00 | 44 | 1011.9 |
| 20260901220110 | 99 | 84 | 4.0 | 8.0 | 0.00 | 0.00 | 0.00 | 44 | 1012.0 |
| 20260901215110 | 99 | 78 | 3.0 | 14.0 | 0.00 | 0.00 | 0.00 | 44 | 1011.9 |
| 20260901214110 | 99 | 85 | 4.0 | 8.0 | 0.00 | 0.00 | 0.00 | 45 | 1012.0 |
| 20260901213110 | 99 | 259 | 3.0 | 7.0 | 0.00 | 0.00 | 0.00 | 43 | 1012.1 |
| 20260901212110 | 98 | 258 | 3.0 | 11.0 | 0.00 | 0.00 | 0.00 | 44 | 1012.3 |
| 20260901211110 | 99 | 66 | 2.0 | 10.0 | 0.00 | 0.00 | 0.00 | 43 | 1012.3 |
| 20260901205110 | 99 | 17 | 4.0 | 10.0 | 0.00 | 0.00 | 0.00 | 44 | 1012.4 |
| 20260901200110 | 97 | 84 | 1.0 | 7.0 | 0.00 | 0.00 | 0.00 | 48 | 1012.8 |
| 20260901195110 | 96 | 67 | 4.0 | 7.0 | 0.00 | 0.00 | 0.00 | 48 | 1012.9 |
| 20260901194110 | 96 | 87 | 3.0 | 8.0 | 0.00 | 0.00 | 0.00 | 48 | 1013.1 |
| 20260901193110 | 96 | 92 | 6.0 | 9.0 | 0.00 | 0.00 | 0.00 | 48 | 1013.2 |
| 20260901191110 | 97 | 42 | 1.0 | 10.0 | 0.00 | 0.00 | 0.00 | 47 | 1013.5 |
| 20260901185110 | 98 | 94 | 2.0 | 9.0 | 0.00 | 0.00 | 0.00 | 46 | 1013.9 |
| 20260901184110 | 97 | 57 | 7.0 | 9.0 | 0.00 | 0.00 | 0.00 | 48 | 1014.0 |
| 20260901183110 | 97 | 189 | 2.0 | 4.0 | 0.00 | 0.00 | 0.00 | 54 | 1014.1 |
| 20260901182110 | 97 | 63 | 0.0 | 9.0 | 0.00 | 0.00 | 0.00 | 48 | 1014.3 |
| 20260901173110 | 94 | 91 | 4.0 | 6.0 | 0.00 | 0.00 | 0.00 | 54 | 1015.0 |
| 20260901172110 | 94 | 74 | 4.0 | 9.0 | 0.00 | 0.00 | 0.00 | 53 | 1015.3 |
| 20260901171110 | 95 | 288 | 1.0 | 3.0 | 0.00 | 0.00 | 0.00 | 51 | 1015.4 |
| 20260901170110 | 95 | 173 | 1.0 | 6.0 | 0.00 | 0.00 | 0.00 | 52 | 1015.6 |